Theta_e
324 325 327 328 328 327 328 328 328 329 331 331 331 331 331 331 330 328 329 329 324 326 329 326 326 325 324 324 322 322 324 323 323 323 324 326 326 325 324 324 325 324 325 326 327 327 327 328 328 328 327 327 326 325 325 325 325 326 326 326 326 326 326 327 326 326 325 325 324 324 325 326 326 326 326 326 325 325 324 323 323 322 322 322 321 321
324 327 326 327 327 326 326 327 328 329 330 330 330 331 330 330 331 329 331 333 326 325 331 329 327 327 324 324 322 320 323 322 322 324 324 325 326 326 325 325 325 325 326 327 328 328 328 328 328 328 327 327 327 326 326 326 326 326 326 326 326 326 326 326 326 326 326 326 325 325 326 326 326 327 326 326 326 326 325 325 324 323 323 322 322 323
325 326 325 324 325 325 326 326 327 328 328 330 330 330 331 330 330 331 332 335 330 326 332 331 329 329 326 326 323 320 322 323 323 325 325 327 327 327 327 327 326 327 327 328 328 328 327 327 327 327 327 327 327 327 327 326 326 326 326 326 326 326 326 326 326 326 326 326 326 326 326 326 327 327 327 327 327 327 326 325 325 324 324 324 324 323
326 325 323 322 324 326 326 325 326 327 327 329 329 329 331 330 330 332 333 336 334 329 329 329 329 328 327 328 326 322 322 323 325 326 326 327 327 327 327 327 328 327 328 328 327 327 327 327 327 327 327 327 327 327 327 327 327 327 326 327 326 326 326 326 326 326 326 326 326 327 327 327 328 328 328 328 328 328 327 326 325 324 324 323 324 324
325 323 321 321 324 326 326 326 325 326 327 327 327 329 330 329 329 332 333 334 334 332 328 327 330 330 328 329 327 324 322 321 323 324 325 325 325 326 325 325 326 327 327 327 327 327 327 327 327 327 327 327 327 327 326 327 327 326 326 327 326 326 326 326 326 326 326 327 326 327 327 328 328 328 329 329 328 328 327 326 325 324 323 323 324 324
323 321 321 322 323 324 325 325 325 326 326 326 326 327 327 329 329 330 330 329 332 334 330 328 332 332 329 330 328 326 325 323 322 321 322 325 325 325 325 325 325 326 326 326 326 326 326 326 326 326 326 326 326 326 326 326 326 327 326 326 327 327 326 327 327 326 326 327 327 327 327 327 328 328 328 328 328 327 326 326 325 325 324 324 324 324
322 322 323 323 322 323 324 324 324 324 325 326 327 326 325 327 329 329 329 329 331 332 329 327 331 333 330 328 328 327 327 325 322 319 319 322 325 324 323 324 324 324 324 324 324 325 324 324 324 325 324 325 325 325 325 325 325 326 326 326 326 326 327 327 326 326 326 326 326 326 326 326 326 326 326 327 327 327 327 327 326 326 326 325 325 325
322 323 324 324 323 323 323 323 323 323 324 326 326 326 326 326 328 328 329 330 330 329 328 327 328 330 329 329 328 326 327 326 323 322 320 319 321 323 322 322 322 322 322 321 322 322 323 323 323 324 324 324 324 324 325 325 325 325 325 326 326 326 325 325 325 326 326 326 325 325 325 325 325 325 325 326 327 327 327 327 327 327 326 326 326 326
320 322 323 323 323 324 323 323 323 324 326 325 324 325 326 327 328 328 328 329 328 328 329 328 326 328 330 330 327 324 325 326 325 325 322 318 321 322 321 321 321 321 321 321 320 320 322 323 323 324 324 324 324 325 325 324 323 323 323 323 323 322 322 322 322 324 325 324 324 323 323 323 324 324 325 326 327 327 327 327 327 327 326 326 326 326
320 321 321 322 324 324 324 325 326 327 326 321 321 324 325 326 327 327 328 327 326 328 330 328 325 328 331 330 326 323 325 326 325 325 321 318 320 321 321 322 322 322 321 321 321 321 322 323 324 324 324 324 324 324 324 322 321 320 320 320 320 320 320 320 320 322 323 323 323 323 322 322 322 323 324 325 326 326 327 327 326 326 326 326 326 326
319 319 320 322 323 323 324 324 324 326 324 320 322 324 324 325 326 326 325 324 326 329 330 327 325 327 330 329 324 324 327 327 324 324 322 319 319 321 322 322 322 321 321 321 321 322 323 324 324 323 322 322 322 322 321 320 319 319 318 318 318 318 319 319 319 320 321 322 322 322 321 321 320 321 323 324 325 325 326 326 326 326 326 326 326 326
319 319 320 321 320 320 323 323 321 321 320 321 324 326 326 325 324 325 323 323 328 330 329 328 325 325 329 328 325 324 326 327 324 324 325 322 319 321 322 322 322 321 321 322 322 323 324 323 322 320 320 320 319 319 319 318 317 317 317 317 317 316 317 317 317 317 318 319 319 319 319 319 319 319 320 321 322 323 325 325 325 325 326 326 325 325
320 320 320 320 318 319 323 324 321 319 319 322 325 326 327 327 326 327 325 324 328 329 327 326 325 326 327 326 325 324 324 324 321 320 323 321 319 321 322 322 322 321 321 322 322 323 324 321 319 318 318 318 317 317 317 317 317 317 317 317 316 316 316 316 316 315 315 315 315 316 316 316 317 317 317 318 319 321 323 324 324 325 325 325 325 324
321 320 319 320 319 319 322 323 322 321 320 322 324 325 327 328 327 328 327 326 328 328 326 324 325 327 327 326 326 324 323 321 318 318 320 320 320 321 322 321 321 321 322 322 322 323 322 320 318 318 318 317 316 315 314 315 316 317 317 318 318 317 317 317 317 317 316 316 315 315 315 315 315 315 315 316 317 318 320 322 323 324 324 324 324 324
323 322 320 320 320 320 321 322 322 322 320 320 322 324 326 326 327 328 327 328 328 327 324 322 324 328 329 330 326 321 320 320 318 319 320 320 321 321 320 319 319 321 322 322 322 322 320 318 318 317 317 317 317 316 314 313 313 315 315 316 316 317 317 317 317 317 317 317 317 317 317 316 316 315 315 315 315 316 317 319 321 321 322 322 322 322
322 323 321 320 319 319 320 320 320 321 321 320 321 323 323 323 326 326 324 325 327 327 324 323 327 330 329 327 324 320 319 319 318 318 319 319 320 319 318 318 319 321 322 321 322 321 319 318 316 316 315 314 315 316 316 316 314 314 313 314 314 314 315 315 315 315 315 315 314 314 315 316 317 317 316 316 315 315 315 316 317 318 318 319 320 321
321 322 320 319 319 318 318 319 318 321 323 320 320 322 321 321 324 324 323 323 324 327 327 326 329 329 326 324 325 325 325 322 319 317 316 317 317 316 317 319 321 322 321 321 322 320 318 317 316 315 313 312 311 312 314 316 317 316 316 316 315 314 314 313 313 314 314 314 313 312 312 312 314 315 317 318 317 316 315 315 315 315 316 316 317 318
322 323 321 319 321 319 317 318 318 318 320 320 320 320 320 322 323 323 324 324 324 324 325 327 327 325 325 326 325 326 326 323 321 318 315 315 316 317 319 320 321 321 321 322 322 320 318 317 316 315 314 312 311 311 310 311 313 315 317 317 317 316 315 314 313 313 313 313 312 312 312 311 311 312 313 315 317 318 317 316 316 315 314 315 315 315
322 323 321 319 320 319 316 319 320 318 317 319 320 318 320 323 322 322 323 323 323 323 324 326 325 323 324 324 321 322 323 322 321 320 318 316 316 319 321 320 320 321 322 321 320 319 318 317 317 316 315 314 315 314 311 309 309 311 314 316 317 317 316 314 313 312 312 311 311 311 310 310 310 310 310 312 314 316 318 318 317 316 315 314 315 315
320 321 321 320 320 319 318 319 321 320 318 318 318 318 320 322 322 322 321 321 323 323 322 325 325 324 323 319 319 320 319 321 322 322 323 318 316 319 321 320 320 321 322 321 319 318 317 317 317 316 315 316 316 314 311 309 308 308 311 314 317 316 314 313 312 311 311 311 311 310 309 309 309 309 310 310 310 312 315 317 318 318 316 314 313 314
319 318 321 321 319 320 320 319 320 321 319 319 320 320 320 320 321 322 321 322 324 321 321 323 323 326 325 317 317 317 316 318 320 321 323 318 316 319 319 319 320 321 321 320 318 318 317 317 317 316 316 316 315 312 311 310 308 308 309 312 315 315 313 311 311 311 311 311 312 311 310 309 308 309 309 310 310 310 312 316 317 318 317 316 314 313
317 318 319 321 320 321 321 319 318 319 319 319 320 320 319 319 321 321 321 323 324 321 323 323 320 324 325 318 316 317 316 316 315 316 317 316 316 318 318 318 318 320 321 319 317 318 317 317 316 316 317 315 313 312 311 310 308 308 308 310 313 313 312 311 310 311 311 312 312 311 310 310 309 309 309 309 310 310 311 314 316 317 318 317 315 313
317 318 319 320 321 320 319 319 319 319 319 319 319 319 319 319 319 320 320 321 322 322 325 324 320 324 326 321 317 317 316 314 314 314 314 315 316 316 317 318 318 320 321 318 317 317 317 317 317 317 316 314 312 311 311 310 308 308 308 308 311 312 312 311 311 312 313 313 312 311 310 309 309 310 310 310 310 311 311 312 314 316 317 318 317 315
316 317 317 319 321 318 317 319 319 318 319 320 320 319 318 319 318 320 322 322 321 320 322 322 321 326 330 325 317 314 313 314 314 315 314 315 315 315 317 319 318 318 318 317 317 317 317 317 317 315 315 313 312 311 310 309 309 309 309 309 310 312 312 312 312 313 313 311 310 309 309 310 310 310 310 311 311 312 312 313 314 315 316 317 318 317
317 317 317 319 321 319 319 320 319 318 318 319 319 318 318 318 318 320 323 323 320 320 321 321 320 323 328 324 316 314 316 316 313 313 315 315 315 316 317 318 317 317 317 317 317 316 316 315 314 313 312 312 312 311 310 309 309 310 310 310 310 312 313 313 312 312 311 310 309 309 310 310 311 311 312 312 313 313 313 314 314 315 316 317 317 317
317 319 318 318 320 321 321 322 321 319 318 318 319 318 318 318 317 318 320 320 319 320 320 319 319 321 323 320 317 318 321 319 314 312 314 315 316 318 318 317 317 316 316 316 316 315 313 312 312 311 311 312 312 311 310 310 310 311 311 310 310 312 313 313 312 312 311 310 310 310 311 311 311 312 313 313 313 313 312 312 313 314 315 316 317 317
317 319 318 318 319 320 320 321 321 320 319 319 319 318 318 318 317 318 319 319 319 320 320 318 318 320 320 318 318 319 321 321 317 313 313 315 316 316 316 316 316 315 315 315 314 313 312 311 311 311 311 312 311 310 310 310 311 310 310 309 311 312 312 312 312 312 311 311 311 311 312 312 313 314 314 314 313 313 312 311 312 313 314 315 316 317
318 318 318 318 318 318 319 321 321 319 319 319 318 318 318 318 317 318 319 318 318 319 319 318 319 319 318 317 317 318 319 320 316 312 312 315 315 315 315 315 315 316 315 314 313 311 311 311 311 312 312 311 310 310 311 311 310 309 308 309 311 312 312 312 312 312 311 311 312 312 313 313 313 313 313 313 313 312 312 311 311 312 313 314 315 316
317 317 317 318 317 317 319 322 321 319 318 318 318 318 318 317 317 317 317 318 318 319 318 318 319 318 317 316 316 316 316 315 313 312 313 315 314 314 315 315 315 315 314 312 311 311 312 312 311 311 310 309 309 311 311 310 309 308 309 310 312 313 313 312 312 311 312 312 313 313 313 313 312 312 312 312 312 312 312 312 312 312 312 313 314 314
315 316 316 317 317 317 318 319 320 319 318 318 317 318 318 317 317 317 317 317 317 318 317 317 318 317 316 317 316 314 313 312 311 312 313 314 314 315 315 315 315 314 312 311 311 312 311 310 309 308 308 308 310 310 309 308 308 309 310 312 312 313 312 312 311 312 312 312 313 313 312 312 311 311 311 311 311 312 312 312 312 312 312 312 312 312
314 317 317 316 316 316 315 316 317 318 318 318 318 318 317 317 317 317 317 317 317 317 317 317 317 317 315 315 315 313 312 311 311 312 313 314 315 315 315 315 315 313 311 311 311 310 309 308 308 308 308 309 310 309 308 308 309 311 312 312 312 312 311 311 311 312 312 312 311 311 311 310 311 311 311 311 311 311 312 312 312 312 312 312 312 312
312 315 316 315 315 315 314 313 314 315 316 317 317 317 317 317 317 317 317 317 317 317 317 317 317 316 314 314 313 312 312 311 311 313 314 314 314 315 315 315 314 312 310 310 310 309 308 308 308 308 308 308 308 308 309 310 311 312 312 311 311 311 311 311 311 311 310 310 310 310 310 310 310 310 310 310 311 311 311 312 312 312 312 312 312 312
312 314 314 314 315 316 315 313 312 313 314 316 317 317 317 317 317 317 317 317 316 316 317 317 316 315 316 317 315 313 314 313 312 313 314 314 314 314 314 313 312 310 309 309 309 308 308 308 308 308 308 308 309 310 311 312 312 312 311 311 311 311 311 310 310 309 309 309 309 309 310 310 310 310 310 310 310 311 311 311 311 311 312 312 312 312
312 314 314 314 316 317 314 312 312 313 315 317 317 316 316 317 317 317 317 317 316 316 316 316 315 315 318 319 316 314 315 314 313 313 313 314 314 313 312 311 310 309 309 309 308 308 308 308 308 308 309 310 311 312 312 312 311 311 310 310 310 310 310 309 309 309 308 308 309 309 309 309 309 309 309 309 309 309 309 310 311 311 311 311 311 311
313 313 313 314 315 315 313 312 315 317 316 316 316 315 315 315 316 316 316 316 316 316 316 316 315 315 317 316 315 314 313 313 313 313 313 313 312 312 310 309 309 309 308 308 308 308 308 308 309 310 310 311 311 311 311 310 310 310 310 310 309 309 309 308 308 308 308 308 308 308 308 308 308 308 308 308 308 308 308 308 309 309 310 310 310 310
313 313 313 313 314 313 313 314 317 316 313 313 314 314 313 315 316 315 316 315 315 315 315 315 314 315 314 312 312 314 313 312 312 312 314 313 311 310 309 309 308 308 308 308 308 308 309 309 309 309 309 309 309 309 309 309 308 308 308 308 308 308 307 307 307 307 307 307 307 307 307 307 307 307 307 307 307 307 307 307 307 307 307 307 307 307
312 313 313 313 312 312 313 314 315 314 312 312 314 313 313 314 315 315 316 316 315 314 314 314 314 315 313 310 311 313 312 310 311 311 310 310 309 309 309 308 308 308 308 308 308 308 308 308 307 307 307 307 307 307 307 306 306 306 306 306 306 306 305 305 305 305 305 306 306 305 305 305 305 305 305 305 306 307 307 307 307 306 306 305 305 304
309 311 312 313 311 310 312 314 314 314 313 313 314 312 311 312 313 315 316 316 314 313 312 313 314 314 313 310 310 310 309 310 312 310 308 308 308 308 309 309 308 308 308 308 308 307 307 306 306 306 306 306 305 305 305 305 305 305 305 305 305 304 304 304 304 304 304 304 304 304 304 305 305 305 304 304 304 305 306 306 306 306 306 305 304 304
307 308 310 312 311 310 312 313 314 314 314 313 314 312 309 310 312 314 315 316 314 310 309 312 314 314 312 311 309 308 309 313 313 309 307 309 308 308 309 308 308 307 307 308 308 307 306 305 305 305 305 305 305 305 305 305 305 305 304 304 304 304 304 304 304 304 304 303 302 302 303 304 305 306 306 304 302 302 302 303 304 305 305 305 304 303
308 308 309 311 311 311 311 312 312 311 311 314 314 311 308 309 310 312 315 315 313 309 308 310 312 312 311 310 308 307 310 313 311 308 307 308 308 308 308 308 307 307 306 306 305 305 304 304 303 303 303 304 304 304 304 304 304 303 303 303 303 302 302 302 302 302 302 301 300 299 300 301 302 303 303 302 300 299 299 299 300 301 301 301 301 301
309 309 309 310 311 310 310 312 311 310 311 314 311 306 306 309 310 312 315 313 308 309 309 309 309 311 310 308 306 307 309 310 309 307 307 307 307 307 307 307 306 306 305 304 304 303 302 302 302 301 301 302 302 302 303 302 301 301 301 301 300 300 299 299 299 298 298 298 297 297 297 297 297 298 298 298 298 297 297 296 297 297 297 298 298 298
311 310 309 310 310 309 309 310 310 311 312 311 306 303 305 311 312 310 310 307 306 307 309 308 308 309 309 307 306 307 308 307 307 306 306 306 306 305 305 305 304 304 303 303 303 302 302 301 301 301 300 301 301 300 300 300 299 299 299 298 298 297 297 297 297 297 297 297 297 296 295 295 295 295 296 296 296 297 296 296 296 296 296 296 297 297
312 311 311 310 309 310 309 309 310 312 309 305 304 304 308 311 311 308 305 305 305 305 306 307 307 308 308 307 307 306 306 306 305 305 305 305 303 303 302 302 302 302 301 301 301 301 301 301 301 301 300 299 298 298 297 297 297 297 296 296 295 296 296 295 296 295 295 296 295 295 295 295 295 295 295 295 296 296 297 297 297 297 297 297 296 297
312 312 312 311 309 310 310 309 310 310 306 303 305 307 308 308 307 306 307 307 305 305 306 306 306 307 307 307 306 305 305 305 305 304 304 303 302 300 300 300 299 299 299 299 299 299 299 299 299 298 297 296 296 295 295 295 295 295 294 294 294 294 294 294 294 294 294 295 295 295 295 295 295 295 295 295 296 296 296 296 297 297 297 297 297 297
311 309 311 312 311 309 309 308 306 304 303 303 305 306 306 306 305 305 307 307 306 306 306 306 306 306 307 307 307 306 305 305 305 304 302 301 299 298 298 298 297 297 297 296 296 296 296 296 295 295 295 295 295 294 294 294 294 294 294 294 294 294 294 294 294 294 294 294 295 295 295 295 295 295 295 295 295 296 296 296 296 297 297 297 297 296
306 304 306 311 311 308 307 305 304 304 303 303 304 305 305 305 305 306 307 307 307 307 307 306 306 307 306 306 306 305 305 305 303 301 299 298 297 296 296 295 295 295 295 295 295 295 294 294 294 294 294 294 294 294 294 294 294 294 294 294 294 294 294 294 294 294 294 294 294 294 295 295 295 295 295 295 295 295 295 295 296 296 297 297 296 296
303 302 305 309 309 309 309 307 305 305 304 304 305 306 305 305 306 306 307 307 307 308 307 306 307 306 306 305 305 305 304 303 301 298 296 296 295 294 294 294 294 294 294 294 294 294 294 294 293 293 293 293 293 293 294 294 294 294 294 294 294 294 294 294 294 294 294 294 294 294 294 294 294 294 294 294 294 294 294 294 294 295 295 295 295 295
304 303 306 308 307 307 308 305 303 303 302 303 305 306 305 306 307 306 307 307 307 307 307 306 306 305 305 305 305 304 302 299 297 297 295 294 294 294 294 293 293 293 293 293 293 293 293 293 293 293 293 293 293 293 293 293 294 293 293 294 294 294 294 293 293 293 293 293 293 293 293 293 293 293 294 294 294 294 294 294 294 294 294 294 294 294
303 304 306 307 306 305 304 303 302 303 304 304 305 305 305 306 307 306 307 307 307 307 306 305 304 304 304 303 302 301 300 298 295 295 294 294 293 293 293 293 293 292 292 292 292 292 292 293 293 293 293 293 293 293 293 293 293 293 293 293 293 293 293 293 293 293 293 292 292 292 292 292 292 293 293 293 293 293 293 293 293 293 294 294 293 293
302 306 306 306 306 307 306 305 304 305 307 305 303 304 305 305 306 306 306 306 306 305 305 304 302 302 301 300 298 297 297 295 294 293 293 293 292 292 292 292 292 292 292 292 292 292 292 292 292 292 292 292 292 292 292 292 292 292 292 292 292 292 292 292 292 292 292 292 292 292 292 292 292 292 292 292 292 293 293 293 293 293 293 293 293 293
303 306 305 306 308 308 306 304 303 304 306 303 301 303 305 304 305 304 304 304 304 302 302 302 301 299 298 296 295 294 294 293 293 292 292 292 292 292 292 291 291 291 291 291 292 292 292 292 292 292 292 291 291 291 291 291 291 291 291 291 291 291 291 291 291 291 291 291 291 291 291 291 291 291 291 291 292 292 292 292 293 293 293 293 293 293
Wind_Speed
13 5 4 8 9 12 12 13 12 6 1 2 4 5 5 5 5 3 3 5 3 5 7 8 11 11 13 13 15 23 25 19 18 19 20 22 23 23 25 27 28 29 29 25 24 25 26 27 27 27 27 27 28 29 29 29 29 29 28 27 27 25 25 27 29 30 31 33 34 35 35 35 34 34 34 34 33 32 32 32 34 34 33 33 32 32
11 7 10 13 10 10 11 11 10 8 5 1 2 4 4 4 5 4 4 5 1 3 5 5 8 10 10 12 14 16 13 13 19 21 22 24 25 25 25 27 28 28 29 27 27 29 29 29 29 29 29 29 30 30 31 31 31 31 30 30 29 27 27 29 29 30 31 32 33 35 35 35 35 34 35 34 33 32 32 33 35 35 35 34 33 32
6 10 15 11 7 8 8 9 9 8 7 3 3 3 3 3 2 5 4 5 2 2 4 4 5 7 8 10 13 13 11 14 22 24 24 26 25 25 26 26 29 30 31 32 32 31 30 30 29 28 29 29 31 32 33 33 33 33 32 32 32 31 31 31 31 32 32 32 32 34 35 35 36 36 36 36 35 34 34 35 36 36 36 35 34 33
7 11 11 10 10 10 9 9 10 7 6 5 5 4 4 3 2 4 4 4 3 3 3 4 5 6 6 7 9 14 16 17 21 23 25 26 25 25 26 26 28 30 31 33 33 32 31 31 30 29 29 30 30 32 33 34 34 33 33 33 32 32 32 32 32 32 32 32 32 34 35 36 38 38 38 38 38 37 37 37 36 36 36 36 35 34
9 5 8 11 9 10 10 9 10 7 6 7 8 8 7 5 5 5 3 4 5 4 2 2 7 7 7 8 8 11 13 14 17 20 21 24 24 25 26 27 28 28 30 32 33 33 33 33 33 32 31 30 31 32 32 33 33 33 33 32 32 32 32 32 32 32 32 32 33 34 35 37 39 40 41 41 41 39 38 38 36 35 35 36 36 36
12 6 12 13 10 10 10 9 11 9 5 6 9 12 12 9 9 7 2 2 4 6 3 1 5 7 4 7 9 8 8 9 12 15 18 23 26 27 29 31 32 32 34 36 36 37 36 35 35 35 33 32 32 31 30 30 31 32 32 32 32 32 32 32 32 32 32 33 33 34 36 37 39 41 42 42 41 39 38 37 37 36 36 37 37 37
6 8 11 11 11 12 12 10 13 12 7 6 6 11 13 10 10 9 5 4 4 6 4 3 5 7 3 4 7 6 7 9 8 9 16 24 27 29 29 30 32 34 35 36 36 36 35 34 35 34 32 30 29 27 28 28 28 28 28 27 28 29 29 30 30 31 32 32 33 34 36 37 38 40 41 41 40 39 39 38 38 38 38 38 38 38
7 12 11 11 13 10 11 11 12 13 9 5 1 7 14 12 12 10 8 6 5 3 5 1 4 6 6 6 7 6 6 8 7 7 11 19 24 26 27 29 30 31 32 32 31 29 28 28 27 26 24 23 24 24 24 21 18 18 19 19 20 21 23 24 26 28 29 30 31 32 34 35 37 38 39 38 39 39 39 39 39 39 39 39 39 39
8 13 13 13 12 8 11 10 9 13 7 4 1 5 9 9 10 9 7 6 3 1 6 5 4 5 7 5 6 6 6 7 8 8 9 15 23 26 28 30 29 30 32 31 30 28 25 23 21 21 20 19 19 18 17 14 13 14 14 15 16 18 20 22 22 23 24 25 26 28 30 32 34 35 36 36 38 38 39 39 39 39 40 40 40 40
2 13 17 13 9 8 10 6 9 14 6 2 6 8 5 3 3 4 5 6 3 3 10 10 8 6 7 4 4 4 5 8 8 7 8 14 22 23 23 23 23 26 28 27 26 26 24 21 19 17 13 10 10 11 13 15 16 17 17 18 20 21 23 23 22 21 21 22 23 25 27 29 31 32 33 35 36 37 38 39 39 39 40 40 40 40
1 11 17 11 11 10 7 5 7 13 12 9 7 8 6 4 4 2 1 3 3 5 13 15 13 9 7 3 4 4 4 8 7 6 8 12 18 20 18 19 21 22 23 21 20 20 20 16 11 7 6 7 10 13 16 18 18 18 18 19 20 22 23 22 22 21 20 21 22 25 26 27 29 30 31 34 35 36 37 38 38 38 39 40 40 40
2 8 10 8 14 12 7 3 0 5 11 9 5 5 5 2 2 2 2 1 5 7 10 12 12 10 9 5 3 6 7 8 9 8 8 10 15 18 18 20 22 23 21 15 11 11 11 8 6 7 7 10 11 11 12 12 12 12 12 13 14 16 17 18 19 19 20 22 23 25 26 27 28 29 30 32 34 35 36 37 37 37 39 40 39 39
5 7 6 5 11 14 9 4 3 3 5 5 6 7 6 2 2 2 2 3 5 5 5 5 9 8 9 7 5 7 7 7 9 12 13 13 16 20 21 23 23 21 14 8 6 7 8 8 7 6 6 6 4 2 2 1 1 1 1 2 3 5 7 9 10 12 13 16 18 21 24 26 27 28 29 31 32 33 35 36 36 37 38 39 39 39
5 5 8 5 5 14 14 8 5 4 6 7 8 9 8 6 4 4 5 3 3 5 3 2 5 4 5 6 9 11 12 16 19 20 20 19 21 23 22 21 17 11 10 8 6 9 10 8 7 7 8 9 9 9 8 7 6 5 5 6 6 5 5 6 6 7 8 9 10 12 15 18 21 24 26 28 29 30 32 34 35 36 37 38 38 37
9 6 10 11 7 14 17 13 11 8 8 9 4 4 6 5 5 6 6 4 3 2 1 2 3 5 4 4 8 13 18 24 24 21 21 21 23 23 22 20 14 11 11 7 8 11 11 11 11 12 11 10 9 8 9 9 8 8 7 7 7 7 7 7 7 8 9 9 10 10 11 13 14 17 20 22 24 26 28 30 32 33 34 36 36 36
12 5 9 15 11 16 17 10 9 10 7 5 2 2 4 3 3 2 2 3 3 2 2 3 2 4 5 4 6 7 9 14 17 18 19 21 22 24 24 19 16 17 12 9 13 14 14 15 15 14 12 10 8 7 6 5 6 7 8 8 8 8 8 8 8 9 9 10 11 12 13 13 14 15 16 18 20 21 24 26 28 30 31 33 34 34
10 5 10 15 9 14 19 12 10 11 7 4 4 4 2 2 4 2 1 1 3 1 2 4 3 4 3 6 7 6 7 7 9 13 16 21 23 22 22 21 21 21 16 14 18 17 17 18 16 13 11 11 9 7 4 2 2 3 5 7 8 9 9 9 9 10 11 11 12 13 14 14 15 15 16 17 18 19 21 22 24 27 29 31 32 33
6 3 8 16 11 13 21 17 10 9 8 5 5 5 2 2 2 2 1 1 3 3 3 5 7 5 3 4 4 5 9 10 10 10 12 19 20 16 18 21 21 22 20 21 21 19 20 21 18 14 11 10 9 8 6 3 2 3 5 6 7 8 10 11 12 12 12 13 14 15 16 16 17 17 17 17 18 19 20 21 22 25 27 28 29 31
5 1 3 12 13 8 11 13 8 6 4 4 6 8 5 2 3 4 4 3 4 5 3 4 8 6 6 7 5 6 13 14 12 10 9 14 16 16 18 17 15 18 23 26 25 24 25 23 19 15 11 8 7 8 8 6 5 5 5 6 7 9 11 13 14 15 16 16 17 17 18 19 19 19 19 18 19 19 20 21 23 24 26 27 27 28
5 3 2 7 9 8 7 7 8 6 1 2 7 7 4 4 5 6 5 4 4 5 4 4 5 5 6 10 10 12 14 11 8 8 8 11 14 17 18 15 13 17 24 27 26 27 26 23 18 15 10 6 7 10 11 8 6 7 7 8 8 10 13 15 16 17 18 19 20 20 21 21 21 21 21 20 20 20 20 21 22 24 25 26 27 27
3 4 4 4 5 8 7 8 13 14 7 5 9 8 6 5 2 1 4 4 3 4 5 5 5 5 5 8 12 15 14 9 9 10 8 10 13 14 17 18 17 20 26 26 25 25 24 20 17 12 6 4 9 12 11 9 7 7 9 10 11 12 15 16 17 18 19 21 22 24 24 25 24 23 22 22 21 20 20 20 21 22 24 25 25 26
3 5 6 4 5 8 8 9 12 14 12 10 10 10 10 8 3 2 5 2 3 4 4 4 6 6 5 6 9 12 11 9 12 12 9 11 13 12 14 20 22 24 28 27 24 21 18 15 11 5 3 7 11 12 11 10 9 8 9 11 12 14 16 18 19 19 20 21 23 26 27 28 28 26 24 23 21 20 20 20 20 21 23 23 23 24
1 2 6 4 4 6 3 3 5 9 14 12 8 7 8 6 6 7 8 4 3 4 3 2 5 6 5 5 8 10 10 9 12 14 11 12 12 7 6 11 19 25 28 25 21 17 13 9 4 2 6 11 13 12 11 12 12 10 10 11 12 15 17 18 19 19 20 23 25 27 28 29 28 27 25 24 22 21 20 20 21 21 23 23 23 23
3 1 6 3 2 1 3 2 3 4 9 9 5 5 7 9 10 8 5 5 5 6 5 4 5 6 5 3 4 7 7 8 12 13 12 11 9 6 5 10 19 25 26 21 15 11 7 3 3 7 10 13 13 12 12 13 13 12 12 13 14 15 17 18 19 20 22 25 26 27 27 27 27 26 25 24 24 23 23 22 22 22 23 24 25 24
6 4 5 5 3 2 0 2 3 2 5 8 10 11 13 15 13 5 2 5 6 9 11 7 6 6 5 1 1 3 6 7 9 12 15 13 11 9 10 17 23 22 18 14 8 3 1 4 7 10 11 11 10 10 11 13 13 12 13 15 16 16 17 17 19 21 24 26 27 26 25 26 26 26 25 24 24 24 24 25 25 24 24 25 26 27
10 5 6 8 8 7 8 9 9 7 6 6 9 13 16 17 17 10 5 7 6 8 11 8 6 6 5 3 2 4 5 6 7 11 13 13 16 16 17 20 19 14 9 5 3 5 9 9 8 8 8 8 8 9 11 12 12 12 13 16 17 17 18 19 21 24 25 26 26 25 24 25 26 26 25 25 26 26 26 27 27 27 27 26 27 28
4 4 10 12 11 12 11 7 5 7 7 7 10 16 17 17 18 13 7 9 9 7 9 9 7 6 9 9 7 6 7 8 7 9 10 13 17 18 17 15 10 5 3 5 8 11 11 9 6 6 7 8 8 10 11 11 11 13 16 18 18 19 20 21 23 24 25 25 24 24 24 25 25 26 26 27 28 28 29 28 28 28 28 29 29 29
2 7 15 14 16 17 11 5 7 11 14 16 17 19 18 16 17 15 12 13 11 8 10 10 9 10 13 14 12 9 10 10 7 8 11 15 16 13 11 7 3 4 6 10 11 10 8 6 6 8 8 9 10 10 9 10 14 19 21 19 17 18 20 21 24 25 26 25 24 24 24 24 26 27 29 30 31 31 31 29 28 27 28 29 30 31
3 9 15 13 17 18 9 6 11 14 15 16 17 18 18 18 19 19 18 17 13 11 12 11 12 14 15 17 16 13 13 11 8 11 14 15 13 8 5 5 6 8 10 10 9 8 6 7 8 8 10 12 13 11 12 15 20 21 20 18 16 17 19 21 24 25 25 25 24 25 26 27 29 31 32 32 32 32 31 29 27 26 27 28 30 32
3 8 12 12 16 17 10 6 9 13 14 16 18 18 16 18 20 20 19 17 13 12 12 11 15 16 16 19 15 12 17 14 11 16 16 13 10 7 7 10 11 11 11 9 9 8 7 8 10 11 13 13 13 14 18 21 21 18 15 15 15 17 20 22 23 23 24 25 25 27 29 31 32 32 32 31 31 30 30 28 27 27 27 27 29 30
6 9 12 11 10 13 10 6 7 11 14 17 19 17 16 16 17 18 18 16 14 14 16 15 13 12 16 18 9 8 14 13 15 18 15 11 9 10 11 14 15 12 10 10 10 8 8 10 12 12 12 12 14 17 20 20 17 14 14 14 16 18 20 21 22 23 25 27 28 29 30 30 29 29 28 27 27 28 29 29 30 30 29 28 29 29
6 5 7 9 8 11 12 11 9 8 8 12 16 17 18 18 17 19 20 18 17 18 18 14 10 11 14 13 6 7 10 10 12 14 13 10 11 13 15 18 17 14 12 12 11 10 12 12 12 12 13 15 17 17 16 15 13 13 14 16 18 20 20 21 22 24 26 27 28 28 28 28 27 26 26 25 26 27 28 30 31 31 31 31 30 30
6 5 5 8 9 11 11 12 9 4 2 7 11 16 20 20 20 20 18 19 20 18 15 12 12 15 9 4 8 11 8 9 11 14 14 13 15 15 17 18 16 14 13 13 13 13 13 13 13 14 15 15 15 14 13 12 12 13 14 16 19 20 21 23 23 24 24 25 26 26 26 26 26 26 26 26 26 27 27 29 30 32 33 33 32 32
9 9 7 7 8 8 8 9 7 5 6 7 8 15 20 21 22 20 19 20 20 15 11 10 13 13 6 5 11 13 6 9 12 15 14 14 16 17 18 18 16 15 15 14 15 14 13 13 13 14 14 14 13 12 12 12 12 12 14 16 19 21 22 23 24 24 23 24 24 25 25 25 26 26 26 26 26 26 27 28 29 30 31 33 33 33
13 12 7 5 6 5 6 9 7 8 6 3 3 12 20 20 21 22 20 19 19 16 14 14 17 14 7 7 12 11 7 8 9 12 13 15 17 18 18 18 17 17 16 15 14 12 12 12 12 13 13 13 13 12 11 11 11 12 14 17 19 21 21 23 23 24 24 24 24 24 25 25 26 26 26 26 26 25 25 26 27 28 29 30 30 31
11 11 6 3 4 3 5 8 8 4 1 3 4 6 13 14 14 15 15 18 21 21 19 20 21 14 6 8 13 14 12 8 7 14 19 19 19 19 17 15 15 15 13 12 12 11 11 11 11 11 11 11 11 11 10 10 11 12 15 17 19 20 20 21 22 23 24 24 24 25 25 26 27 27 27 27 26 25 24 24 24 25 25 26 27 27
5 6 4 5 5 3 5 8 4 3 3 3 4 4 10 13 14 15 15 16 16 16 16 17 18 14 8 10 14 14 10 5 6 14 20 19 17 17 17 15 14 14 12 11 11 10 10 9 9 9 9 9 9 9 9 10 12 13 15 16 17 18 19 19 20 21 22 23 24 25 25 26 27 28 29 29 28 27 25 23 22 22 23 24 24 25
3 3 3 5 3 1 4 6 3 1 3 7 8 6 7 9 10 10 9 9 8 12 16 17 17 15 10 8 12 11 5 3 7 9 12 13 14 15 15 15 14 13 12 12 11 10 9 8 8 8 8 8 8 10 11 12 14 16 17 17 17 18 18 19 21 22 22 23 23 24 24 25 27 28 30 30 30 30 28 25 24 23 23 24 24 24
5 2 1 2 1 1 2 3 4 5 6 7 8 6 8 15 14 9 4 9 8 12 19 18 14 12 11 13 16 10 6 5 10 7 10 11 13 14 14 15 14 12 12 12 11 10 9 8 7 7 8 10 11 13 14 16 17 18 19 19 19 20 21 22 23 24 24 24 22 22 22 24 26 29 30 32 31 31 31 29 28 26 25 25 26 26
7 4 3 3 2 2 2 1 2 3 5 5 5 6 13 22 20 11 5 9 5 13 22 21 15 16 21 23 18 9 7 11 12 7 10 12 12 13 13 14 14 13 12 12 10 9 9 8 8 8 10 11 13 15 16 17 18 19 20 21 21 22 22 23 23 23 24 24 23 23 23 24 26 27 29 31 31 31 31 30 30 29 28 28 27 27
4 3 3 4 3 4 5 4 2 3 5 5 5 10 19 23 15 7 9 6 10 19 28 28 26 28 30 25 17 12 16 21 16 9 11 14 13 14 14 14 14 13 12 11 10 9 9 8 8 8 10 12 14 16 18 19 19 20 21 22 22 23 23 23 24 24 24 24 25 24 24 23 24 25 27 28 29 30 30 29 30 30 30 29 29 29
4 3 2 3 3 3 3 2 1 4 6 7 6 11 19 16 6 8 6 10 19 24 25 28 31 31 27 23 22 21 22 21 15 10 11 14 14 15 16 15 15 13 12 12 11 10 10 10 10 10 11 13 15 17 19 20 21 22 23 23 24 25 25 25 25 26 26 26 27 26 25 24 23 23 25 27 28 29 29 29 30 30 31 30 30 30
5 4 3 4 4 3 1 3 2 5 4 13 14 7 7 6 4 8 9 9 16 18 16 20 26 26 24 23 24 22 17 14 12 11 13 16 15 15 16 15 14 13 12 12 12 12 13 13 13 14 14 15 16 17 19 20 21 22 23 23 23 25 26 26 27 27 27 27 27 27 27 27 25 24 25 26 27 28 29 29 30 31 32 32 32 32
3 4 4 3 3 4 3 5 5 3 5 18 16 7 12 11 5 11 14 9 9 13 15 18 20 20 21 20 18 16 14 13 14 15 16 17 17 16 16 15 13 12 11 12 13 13 13 14 14 14 14 14 15 16 18 19 20 21 21 22 23 25 26 26 27 28 27 27 28 28 28 28 28 27 27 27 27 28 29 29 29 30 31 33 33 34
4 4 5 3 3 4 3 3 3 2 6 14 7 3 18 20 8 10 17 15 13 15 16 18 18 15 14 13 13 13 13 13 16 16 16 17 16 15 15 15 14 13 11 11 12 12 12 12 12 13 13 14 15 17 18 19 20 21 21 22 23 25 26 27 27 28 27 28 28 28 28 29 29 29 29 29 29 30 31 31 31 31 31 32 33 33
3 1 4 3 1 3 2 2 2 1 4 10 2 3 13 20 13 12 15 14 15 18 17 18 17 14 12 10 9 10 12 15 17 16 14 15 14 12 12 11 12 12 12 12 12 12 12 12 12 12 13 14 15 17 19 19 21 22 22 23 24 25 27 28 28 28 28 28 29 29 29 30 30 30 31 31 30 31 31 32 33 34 34 34 35 35
3 2 3 2 3 4 3 3 4 2 7 12 6 2 10 16 15 13 11 11 16 19 17 16 14 12 11 9 9 12 15 17 18 16 14 13 11 9 9 8 9 9 10 10 10 11 12 12 13 13 14 15 16 18 19 19 20 21 22 23 25 26 27 28 28 29 30 30 31 31 31 31 32 32 33 33 33 33 32 31 32 33 34 35 36 36
3 5 3 2 4 4 3 4 2 1 5 9 7 6 11 14 14 13 11 13 18 18 15 14 13 12 12 11 12 15 18 18 17 16 14 11 9 8 7 6 7 7 8 9 10 12 13 14 15 16 17 17 18 19 20 20 20 21 22 24 25 27 28 28 29 30 31 32 33 33 34 34 34 35 35 35 36 36 36 35 35 34 34 34 34 35
6 7 4 2 3 1 3 2 1 4 1 5 8 10 11 12 14 14 12 13 16 16 15 15 14 13 13 13 14 17 18 18 15 13 12 10 8 7 6 6 6 7 8 10 11 13 15 17 18 18 19 19 19 20 20 20 20 21 22 24 26 27 28 29 30 31 32 33 35 35 35 36 36 36 37 37 37 37 37 37 37 38 38 37 34 34
6 5 2 3 4 2 3 5 7 4 0 5 8 8 9 10 12 13 13 14 15 16 18 18 16 15 15 15 15 15 16 15 13 10 10 8 7 6 6 6 6 8 9 11 13 15 17 18 19 20 20 20 20 21 21 21 22 22 23 25 26 27 28 29 31 32 33 35 36 37 38 38 38 38 38 39 40 40 39 39 38 38 39 40 38 36
5 6 6 5 5 4 7 14 15 7 3 3 6 6 8 11 13 15 16 18 18 18 18 18 18 17 17 16 14 13 12 11 9 7 7 6 5 6 7 8 10 11 13 15 16 17 18 19 20 21 21 21 21 22 22 23 23 23 25 27 27 28 29 29 31 33 34 36 37 38 39 40 40 40 40 40 41 42 43 43 42 40 39 39 39 39
Wind_Direction
172 161 189 203 205 193 189 196 209 217 143 150 173 201 210 214 253 254 259 272 192 209 247 233 238 242 242 250 246 243 248 255 264 271 268 265 264 260 253 248 247 248 249 251 251 254 256 258 261 264 267 267 264 263 263 266 268 270 270 267 266 268 268 267 265 264 263 263 263 262 263 267 272 273 272 271 271 271 272 272 268 266 267 267 267 269
174 194 217 210 203 185 184 190 197 221 235 189 181 228 242 230 254 248 251 288 216 195 256 247 249 254 248 256 259 249 244 251 253 257 262 259 257 256 252 249 248 249 251 253 255 257 257 257 259 262 266 267 265 263 264 266 270 273 272 270 270 270 268 268 269 268 267 267 268 269 271 275 278 277 276 275 276 276 275 273 269 268 268 268 268 270
179 222 221 193 156 156 169 178 180 203 215 218 228 242 259 223 261 267 267 316 324 210 266 283 272 261 251 253 261 252 230 238 246 246 253 257 258 258 255 253 252 253 256 256 257 258 257 256 258 261 263 264 265 265 266 268 271 272 271 271 272 272 270 271 272 270 271 273 274 275 277 277 278 277 277 277 277 276 274 271 269 268 267 268 268 268
192 228 213 155 141 158 165 176 176 189 203 211 214 222 245 191 148 257 272 323 306 245 253 304 304 270 257 258 260 254 238 235 244 247 251 255 257 259 260 260 259 258 258 257 258 259 258 258 259 261 263 264 264 265 266 266 268 270 270 271 273 274 275 275 275 275 276 277 276 275 275 275 274 274 273 272 271 270 270 269 268 268 267 267 268 268
214 213 148 155 183 176 168 175 175 184 202 208 208 211 226 208 191 225 271 320 310 289 255 318 305 270 239 246 255 257 244 230 234 239 245 249 253 258 259 260 261 259 260 260 260 261 262 263 265 266 267 267 266 266 266 267 268 270 270 271 274 276 277 277 277 278 277 275 274 273 271 270 269 269 268 267 267 268 269 270 271 272 271 269 270 271
226 186 143 175 211 195 185 193 189 190 203 215 214 213 212 206 208 213 197 346 311 288 263 137 283 275 222 230 245 248 241 229 225 229 238 247 252 255 257 260 262 262 262 262 262 264 266 267 269 269 269 270 271 271 272 272 271 271 271 271 272 274 275 276 277 278 276 274 274 273 271 270 269 270 270 270 272 273 274 275 276 276 274 273 273 273
221 176 158 180 199 200 205 215 205 196 208 231 217 209 209 204 208 203 166 170 237 262 267 162 230 272 288 245 245 235 244 246 235 232 237 243 250 254 257 260 260 261 262 263 264 266 267 269 271 271 273 274 276 277 278 278 276 273 272 271 270 271 273 275 277 277 276 274 274 274 273 273 273 273 274 276 278 279 278 278 278 276 276 275 274 274
182 175 175 182 187 194 204 216 212 194 202 241 219 188 201 203 206 196 167 194 222 267 295 230 194 265 273 249 239 215 237 264 258 254 248 244 248 252 256 258 261 263 265 266 267 268 268 269 273 276 278 278 277 278 279 281 279 274 271 269 267 269 271 273 275 275 274 274 275 275 275 275 274 275 277 279 279 280 279 278 278 278 277 276 276 275
173 179 181 180 184 193 205 213 197 180 195 254 150 158 188 194 200 190 170 207 219 116 264 238 158 249 266 247 237 212 218 256 252 240 241 244 248 254 260 263 267 268 268 270 270 268 265 266 275 280 280 280 277 274 273 273 273 270 265 261 261 264 266 269 270 271 271 272 274 275 276 275 276 277 279 280 280 280 279 279 280 279 279 279 278 277
182 194 185 174 185 202 204 194 170 175 186 195 137 99 93 104 125 171 183 200 185 191 237 222 169 219 266 230 204 207 214 235 246 246 239 244 251 259 265 266 267 268 270 273 271 265 261 264 274 278 273 267 259 253 256 260 261 260 257 255 254 255 258 262 263 264 265 268 272 274 275 276 278 279 281 281 280 279 279 279 280 280 280 280 279 279
341 189 180 177 195 192 173 158 178 180 163 145 127 89 77 54 56 74 148 163 176 223 236 221 185 199 256 240 188 202 198 202 217 242 247 251 258 262 264 265 268 278 286 284 275 265 259 260 261 245 222 225 235 243 252 259 261 261 261 260 258 256 257 260 260 260 260 263 268 270 272 275 276 278 280 280 279 279 279 279 281 281 281 282 281 281
110 165 176 191 190 167 129 117 23 163 151 135 117 115 114 59 39 45 30 153 205 233 241 220 181 185 233 241 205 228 223 205 200 211 233 246 253 259 263 264 276 293 297 283 268 257 241 224 193 191 214 229 237 245 251 259 265 267 268 267 266 265 265 267 266 265 264 264 267 268 270 272 273 274 276 277 278 279 279 280 281 281 282 282 282 282
178 179 184 180 176 161 139 122 64 93 154 133 126 149 153 170 174 174 203 205 221 242 267 214 163 178 236 240 230 245 251 235 213 209 216 225 242 259 266 271 285 292 275 236 209 201 186 172 172 192 206 195 179 175 182 207 252 291 328 310 297 290 288 292 291 289 285 281 279 277 277 277 276 275 275 275 277 278 278 279 280 280 281 282 282 282
177 195 184 160 172 173 162 160 167 165 181 171 159 171 178 178 180 197 202 206 238 243 267 208 166 193 265 250 224 226 233 230 219 211 217 231 250 262 267 276 289 271 223 200 187 181 169 165 166 162 149 130 113 96 87 81 78 68 57 51 43 34 21 9 358 349 340 328 316 306 298 293 288 284 281 279 279 279 278 277 278 279 280 281 282 283
186 201 182 179 181 178 179 185 179 160 171 185 168 167 189 191 190 200 199 193 208 209 165 170 179 194 212 243 228 223 230 230 224 221 230 244 253 257 263 267 255 217 202 194 184 170 157 154 144 133 127 117 105 89 76 68 65 60 52 44 35 30 26 19 16 9 5 1 353 345 336 327 314 303 296 291 287 285 282 279 279 279 279 280 282 283
202 219 175 183 174 168 185 190 152 137 160 193 147 137 205 207 167 177 192 172 145 93 123 187 232 220 216 284 277 247 250 244 239 242 243 247 251 255 261 252 216 204 210 190 176 164 152 150 138 125 116 103 94 86 76 62 53 47 43 39 30 23 16 7 4 0 358 359 356 353 348 342 334 326 318 311 305 297 291 286 283 282 281 281 281 282
202 210 175 182 176 178 189 179 158 168 167 171 188 182 171 120 121 131 255 94 101 132 205 188 230 274 274 291 279 265 286 276 252 249 244 248 255 255 250 232 204 204 211 186 173 167 161 157 144 129 113 98 87 79 76 64 15 356 2 10 12 12 6 359 353 348 345 345 346 346 345 342 336 331 325 322 320 312 303 295 290 288 285 284 282 282
182 200 185 180 186 202 189 170 179 193 153 137 188 174 101 49 86 117 187 139 136 209 228 193 214 229 210 258 280 252 257 259 249 246 246 252 255 247 241 233 213 202 194 182 178 175 170 165 155 144 126 105 86 67 51 28 345 318 317 325 337 346 346 346 343 340 338 333 331 332 333 334 333 330 325 319 317 315 311 307 303 297 291 288 286 283
173 173 231 191 187 187 164 157 191 217 164 151 167 155 142 212 221 187 180 185 181 205 233 212 222 216 196 228 246 217 228 238 243 247 254 255 245 233 237 238 221 198 182 179 179 174 169 166 161 155 140 111 71 39 23 7 338 324 321 316 323 333 335 336 335 334 333 328 323 322 322 324 324 323 322 318 313 309 308 311 312 307 301 295 289 284
188 191 229 196 179 155 149 174 196 199 178 100 145 160 174 203 211 195 186 198 193 204 224 214 218 223 214 221 223 225 227 222 229 245 247 241 233 231 234 234 222 197 180 177 177 171 168 167 166 162 145 97 34 12 9 7 342 327 330 324 323 332 334 334 331 328 327 325 323 319 319 319 318 316 314 314 313 309 306 308 310 312 310 302 293 286
184 216 211 167 158 161 175 198 194 186 174 150 166 185 199 199 205 170 189 190 159 188 223 221 224 243 236 216 217 230 232 211 214 235 235 232 242 250 248 244 230 198 182 179 175 168 165 163 162 156 130 55 11 1 1 8 356 333 332 330 328 331 332 330 326 322 320 321 321 319 319 318 318 316 312 310 311 309 307 305 305 308 309 305 299 292
197 216 200 164 174 188 195 203 198 187 176 175 187 192 196 194 164 174 213 182 124 190 207 205 233 252 239 211 211 225 233 221 215 222 230 237 247 256 249 244 232 200 182 176 169 162 157 152 149 130 52 2 356 357 359 6 3 345 335 330 324 323 323 321 319 317 315 314 315 316 316 317 319 320 315 311 307 304 302 300 299 300 299 300 301 295
107 162 186 176 183 192 214 203 172 177 185 194 205 193 189 185 168 194 211 185 174 209 187 187 240 258 250 210 202 217 227 222 214 215 220 221 224 234 235 227 213 190 174 168 163 157 154 148 138 21 343 336 340 345 348 354 352 342 335 329 319 313 313 312 312 311 310 310 311 312 313 315 318 318 316 312 307 301 299 296 294 294 292 293 295 292
66 130 181 175 147 129 346 12 111 168 192 200 218 191 183 192 192 199 201 177 187 197 190 219 239 257 276 243 218 228 209 205 214 203 188 183 184 199 185 160 164 164 158 155 152 148 152 157 332 328 322 320 324 331 336 342 340 331 328 329 321 309 305 305 304 305 307 309 310 310 311 313 314 315 314 312 309 306 302 299 296 293 290 289 289 290
178 198 166 166 172 158 249 165 165 230 209 198 207 199 194 195 188 175 166 185 204 198 191 205 222 237 273 335 290 240 169 183 209 177 155 151 149 154 154 143 141 143 144 148 149 143 259 300 317 321 321 318 318 323 326 329 327 320 320 324 318 305 299 300 301 303 307 308 309 309 309 310 311 312 312 312 312 311 309 305 301 297 293 290 287 286
185 199 176 189 194 188 195 194 189 197 199 198 204 201 200 194 184 179 188 198 210 200 192 205 218 235 278 309 265 235 186 195 205 170 152 144 136 132 137 138 136 137 144 164 223 290 302 305 311 317 316 310 305 310 315 317 317 312 312 315 310 300 297 300 302 305 307 308 309 308 308 309 311 311 312 312 314 314 313 310 306 302 298 293 289 287
173 214 202 206 208 207 211 212 172 147 168 194 199 200 203 198 191 187 189 203 203 192 202 214 204 217 249 247 232 228 216 210 202 186 172 147 130 126 132 135 137 159 213 290 294 295 299 303 308 302 294 292 295 301 307 307 305 305 305 304 300 296 298 302 305 307 308 308 307 307 308 309 310 311 312 313 315 315 315 313 309 305 301 297 293 290
136 220 211 213 221 225 221 188 146 154 185 201 200 201 201 196 194 193 202 208 195 190 219 216 189 205 232 234 222 213 215 215 200 182 167 149 137 130 133 143 183 240 280 296 289 284 284 283 285 282 282 293 297 293 290 291 298 303 302 298 292 292 296 300 305 307 308 308 308 308 309 311 312 312 313 314 315 315 316 314 311 307 304 300 296 292
150 211 212 212 221 229 226 183 172 176 194 205 204 205 201 194 195 199 211 212 194 201 224 209 195 209 225 234 228 208 207 213 185 170 164 151 145 145 157 209 244 267 282 278 260 253 253 258 268 276 286 293 289 280 279 288 297 299 297 294 291 293 298 300 304 307 307 308 309 310 313 314 314 314 314 314 314 314 314 313 310 308 305 302 298 294
181 207 210 212 222 225 220 210 197 186 191 203 208 207 198 196 200 203 214 218 209 219 231 214 210 214 220 233 233 206 210 208 150 147 160 157 163 190 221 243 260 273 270 247 227 229 242 263 279 286 287 280 269 271 284 292 297 295 289 289 292 297 302 304 307 309 309 310 311 312 313 313 313 314 315 316 315 313 312 310 308 307 305 302 300 297
200 210 202 199 226 231 218 224 222 199 196 203 206 203 194 193 200 206 215 219 214 222 228 219 217 225 230 236 226 167 195 187 134 139 161 171 196 227 249 262 273 277 257 229 222 237 266 283 286 282 272 264 262 271 282 287 291 292 290 293 298 302 306 308 309 311 311 311 312 313 314 315 316 317 318 317 315 312 310 308 307 306 304 303 302 300
188 208 196 185 215 231 214 210 219 213 214 215 208 200 194 191 198 205 210 211 208 214 220 217 216 233 239 237 217 169 171 154 137 156 174 193 220 243 262 269 274 270 250 235 241 265 285 284 275 267 262 264 266 267 269 269 275 285 292 300 306 309 310 309 309 310 311 312 314 316 318 319 319 320 319 316 313 310 309 308 306 306 305 303 303 301
180 189 192 181 205 228 212 196 194 177 223 234 213 198 195 197 202 207 210 212 209 208 210 210 217 227 227 203 225 225 185 146 164 182 192 216 231 244 255 259 262 257 244 246 263 278 283 273 264 263 261 260 256 249 245 250 261 276 290 301 306 307 308 308 309 311 313 315 317 318 319 319 319 319 318 316 314 311 309 307 305 305 305 304 305 304
188 194 199 187 201 219 190 160 163 182 210 223 204 192 196 199 200 204 211 212 210 211 216 221 228 230 209 175 224 235 192 158 186 202 212 232 241 243 244 241 242 241 241 255 268 271 269 262 257 254 250 245 241 236 239 249 262 279 293 302 305 305 308 310 312 314 315 315 316 316 317 317 317 318 318 318 318 316 314 311 308 306 304 304 306 307
190 192 198 199 204 202 151 143 181 212 211 230 221 198 198 199 199 204 212 211 207 211 219 227 234 230 203 196 226 240 224 185 198 223 237 245 246 242 237 231 228 230 236 247 254 252 247 243 240 237 234 233 236 240 248 259 271 285 295 301 303 303 307 309 310 312 312 312 312 312 313 314 315 317 318 319 320 320 320 318 314 311 309 307 307 308
192 190 190 194 193 168 152 177 207 213 116 339 309 207 192 196 195 200 217 219 210 207 209 217 228 228 204 212 230 241 247 235 235 252 253 250 243 239 240 241 239 241 240 236 234 235 232 227 225 228 230 234 242 249 259 267 275 286 294 299 300 300 301 302 302 304 305 306 307 308 311 313 314 316 317 317 318 319 319 318 316 315 313 312 312 312
175 180 185 196 198 179 175 193 215 28 36 280 273 194 184 195 191 188 210 222 208 202 208 216 226 227 213 222 233 239 250 261 266 256 246 238 234 235 242 247 248 248 241 229 224 221 216 216 217 221 229 234 243 253 264 273 281 289 292 293 294 294 294 295 297 299 301 303 306 309 312 314 315 316 316 315 315 314 315 314 313 313 312 312 313 314
171 183 189 193 197 154 167 186 195 157 213 218 214 195 171 175 174 174 202 223 199 190 201 210 223 225 215 226 237 230 220 256 271 250 220 215 224 229 233 233 230 227 222 215 215 209 205 213 217 224 241 251 261 271 278 286 292 293 293 293 292 293 294 297 300 301 303 304 305 308 311 313 315 316 315 314 312 311 311 310 308 308 308 308 310 310
180 192 157 152 136 86 159 189 193 199 229 222 204 187 147 141 130 115 183 232 219 191 195 202 213 215 210 218 220 197 155 227 252 218 173 191 215 214 212 212 204 198 197 198 205 208 210 219 227 239 258 268 278 286 289 292 293 292 293 294 294 297 298 299 300 301 302 304 305 305 306 307 309 310 309 309 308 308 308 308 307 306 305 304 305 305
179 180 172 165 177 171 161 216 225 228 257 237 198 186 158 142 126 115 207 241 207 176 191 197 197 206 211 212 207 179 172 218 241 220 184 194 202 194 194 198 191 187 190 193 199 206 212 224 238 253 268 276 283 288 289 290 291 291 294 296 297 299 298 297 297 297 298 300 302 304 304 303 303 302 302 301 302 304 306 307 307 307 306 305 304 304
174 175 176 171 173 171 178 213 267 273 250 228 207 179 151 133 126 172 222 207 150 176 197 198 195 205 209 200 187 188 210 223 239 240 203 197 196 188 187 189 186 187 194 199 206 217 226 240 252 263 276 281 284 287 287 289 292 293 296 299 299 298 298 297 297 296 296 298 300 304 306 305 303 301 299 299 299 301 304 308 309 309 309 309 308 307
161 154 163 160 156 157 175 192 262 278 235 184 158 164 154 144 170 217 195 152 161 183 202 201 200 207 207 195 195 207 218 223 231 225 198 197 202 194 188 187 188 192 201 209 219 229 236 248 255 261 270 275 279 283 285 288 291 293 295 297 296 295 295 295 295 295 296 297 299 302 305 307 306 303 301 301 300 299 301 306 308 309 310 311 310 310
166 156 172 181 162 138 130 163 183 281 223 144 126 135 175 185 190 159 133 142 171 185 196 198 204 210 205 200 205 210 212 213 209 199 192 194 194 188 186 188 190 196 206 215 223 231 237 243 250 256 262 268 275 280 283 286 288 290 292 293 293 293 294 295 295 296 297 297 298 300 302 305 307 306 304 303 302 300 300 301 304 306 308 310 311 310
186 178 181 197 178 151 165 188 192 278 185 155 143 164 207 211 182 148 148 151 173 185 187 190 202 209 206 204 203 197 196 197 191 189 189 186 185 186 187 189 191 196 207 218 227 234 237 242 248 255 262 270 277 282 285 287 289 290 291 293 294 294 295 296 297 298 300 300 300 300 301 303 305 306 306 305 305 303 301 301 301 302 304 306 308 308
228 211 174 179 195 171 172 199 209 292 190 174 162 187 198 202 205 165 165 164 167 179 186 189 193 193 190 191 185 180 188 193 188 187 185 181 182 184 184 187 194 200 211 223 233 241 245 249 256 262 269 277 282 285 288 290 291 293 294 295 295 295 295 296 298 300 302 303 302 302 302 302 303 305 306 308 308 306 304 303 303 301 300 301 303 306
270 181 137 135 210 221 234 208 181 347 189 186 207 7 190 199 203 179 173 174 173 177 181 181 178 165 157 167 177 186 198 196 186 180 176 175 177 179 182 189 197 205 215 224 234 245 253 261 268 273 278 282 284 286 289 291 294 296 297 297 297 296 296 298 300 302 303 303 304 304 303 303 303 303 304 305 306 306 306 305 304 302 301 302 304 306
280 168 139 129 159 189 234 216 181 190 195 193 200 136 172 189 193 180 179 188 182 176 171 167 163 161 168 188 209 207 196 186 178 171 169 172 178 180 185 191 198 212 228 238 249 260 269 278 285 288 291 292 291 291 293 294 296 297 298 298 297 296 298 300 302 303 304 305 306 306 306 306 305 303 303 303 304 304 303 303 303 302 302 304 306 307
202 166 166 174 166 180 244 247 218 210 191 184 174 151 159 172 174 165 168 180 177 170 166 167 173 182 186 192 203 196 180 172 173 173 171 174 180 185 192 200 212 231 250 264 274 283 290 294 296 297 298 299 298 297 297 297 298 298 297 297 296 297 299 301 302 303 305 305 306 306 307 307 306 306 305 304 304 304 304 305 305 304 303 305 308 308
139 158 177 146 134 174 295 283 45 26 335 192 178 171 172 174 171 165 167 177 178 175 174 172 171 177 178 175 182 183 173 167 170 173 176 182 188 195 207 225 240 256 271 279 287 295 297 297 298 298 297 298 297 296 296 296 297 298 296 294 295 297 299 300 301 303 303 304 304 304 305 305 305 305 305 304 304 304 303 304 306 306 305 305 307 308
127 158 170 106 132 189 246 190 158 122 291 219 194 183 181 182 180 175 172 176 177 175 175 172 165 167 171 169 171 176 173 167 168 174 183 192 201 215 234 251 264 275 284 289 293 296 295 296 297 296 295 296 295 294 294 295 296 296 295 294 296 297 298 299 300 300 301 301 302 302 303 304 304 304 305 305 304 304 302 301 302 302 302 303 304 305
164 175 170 150 166 211 212 191 177 150 99 173 176 170 166 168 169 164 157 160 163 163 169 174 169 165 167 165 167 175 176 173 177 186 199 217 238 256 272 283 286 290 293 293 294 295 294 294 294 293 294 295 294 293 294 294 295 295 294 295 297 298 299 299 299 298 299 299 300 301 302 302 303 303 304 304 304 304 304 302 300 299 299 300 301 302